Location: Arroyo de Fuente Vieja
(40.4902°N, 4.1175°W)
Time: 21:25:41
(UTC+00:00)

Ariane Rocket - Pass Details

Date: 18 April 2024
Orbit: 758 x 766 km, 98.5° (Epoch: 22 May)

Event Time Altitude Azimuth Distance (km) Brightness Sun altitude
Exits shadow 20:56:44 32° 78° (ENE) 1,284 3.8 -20.8°
Maximum altitude 20:57:09 33° 68° (ENE) 1,272 3.8 -20.9°
Drops below altitude 10° 21:01:37 10° 6° (N) 2,296 5.9 -21.6°
Sets 21:04:06 0° 357° (N) 3,226 6.8 -21.9°
